Location: Ambrosina
(19.9365°S, 43.9833°W)
Time: 01:02:23
(UTC+00:00)

Cosmos 1809 Rocket - Pass Details

Date: 11 May 2021
Orbit: 942 x 962 km, 82.5° (Epoch: 20 June)

Event Time Altitude Azimuth Distance (km) Brightness Sun altitude
Rises 21:30:18 0° 2° (N) 3,625 7.7 -14.7°
Reaches altitude 10° 21:32:47 10° 4° (N) 2,686 6.9 -15.2°
Maximum altitude 21:38:54 72° 87° (E) 1,014 4.4 -16.6°
Drops below altitude 10° 21:45:06 10° 170° (S) 2,712 6.6 -18.1°
Sets 21:47:37 0° 171° (S) 3,662 7.3 -18.6°
